loading
DOY 198 | 2024-07-16T12:43:28Z
Showing default

LES 2, 1360

Orbit data source: Space-Track

LES 2, 1360 is a payload satellite owned by USAF SSD (US) in HEO that was launched on Thu, 06 May 1965 UTC via a Titan IIIA launch vehicle from the Air Force Eastern Test Range (AFETR). Payloads include a variety of satellites, spacecraft, and rockets equipped with specific instruments for various scientific and technological missions. These include communications satellites like Starlink; space stations such as the ISS; scientific satellites like the Hubble; Earth observation satellites from companies like Planet Labs, Umbra, and HawkEye 360; GPS; miniature CubeSats for education and research; and military/defense satellites.

Loading next visibility...
Loading greatness...
LES 2 details
NORAD ID1360
COSPAR ID
1965-034B
Orbit
HEO
Last TLE update14 hours ago
Origin
Flag of USUSAF SSD (US)
ManufacturerMIT-LL
BusLES
MotorStar 13A
Mass37 kg wet, 37 kg dry
Launch date (UTC)
1965-05-06 (59 years ago)
Launch vehicle
Titan IIIA
Launch site
Air Force Eastern Test Range (AFETR)
Object type
Payload
Rocket body
Debris
Radar Cross SectionMedium (>0.1 m² and <1 m²)
Predictive object data (real-time)
Latitude-22.01038°
Longitude113.83982°
Altitude13,944.403 km
Speed3.599 km/s
Apparent Right ascension01h 54m 47s
Apparent Declination-39° 51' 22"
Sunlit
Object is in daylight
Predictive observer data (real-time)
Local Sidereal Time01:22:23
Azimuth173.696° S
Elevation9.886°
Doppler factor1
Orbital elements
Apogee14,806.994 km
Perigee2,773.306 km
Semi-major axis15,168.287 km
Eccentricity0.3966726
Inclination32.1521°
RAAN66.8544°
Arg. of periapsis155.4994°
True anomaly204.51779°
Mean anomaly230.1342°
Mean motion1.16182 °/min
BSTARUnknown
Period309.86 mins
Definitive object data (Epoch: 2024-07-15T22:33:58.397Z)
Latitude
Longitude154.10107°
Altitude13,616.118 km
Speed3.687 km/s
True Right ascension04h 27m 26s
True Declination0° 00' 00"
Sunlit
Object was in daylight at TLE epoch
TLE from 14 hours ago
0 LES 2
1  1360U 65034B   24197.94025923 -.00000022  00000-0  00000+0 0  9999
2  1360  32.1521  66.8544 3966726 155.4994 230.1342  4.64826743  5391
Epoch: 2024-07-15T22:33Z
No data available
Other satellites on launch #34 in the year 1965 (1965-05-06 UTC)

LES 2 Visibility forecast

Observer location: 39.9160978°, -105.1181434

LES 2 is not visible in the next 10 days
Span
Click to sort rows by Start time (UTC) header in descending order
Start Az.
Max El. time (UTC)
Max El. Az.
Max El.
End time (UTC)
End Az.